Home > Weather > Nîmes > Past weeks

Flag for France Past Weather in Nîmes, Languedoc-Roussillon, France — Yesterday and Last 2 Weeks

Now
79 °F

Passing clouds.


Feels Like: 79 °F
Forecast: 53 / 78 °F
Wind: 3 mph from South

Location: Nimes / Garons

Current Time: May 27, 2016 at 12:32:32 PM

Latest Report: May 27, 2016 at 12:00 PM


Visibility: N/A

Pressure: 29.95 "Hg

Humidity: 39%

Dew Point: 52 °F

Location of NîmesLocation

Past Weather in Nîmes — Graph

°F

Nîmes Temperature Yesterday

Maximum temperature yesterday: 77 °F (at 2:30 PM)
Minimum temperature yesterday: 54 °F (at 1:30 AM)
Average temperature yesterday: 64 °F

High & Low Weather Summary for the Past Weeks

 TemperatureHumidityPressure
High77 °F (May 20, 4:30 PM)100% (May 22, 5:00 AM)30.15 "Hg (May 22, 5:00 AM)
Low45 °F (May 24, 3:30 AM)27% (May 17, 4:30 PM)29.59 "Hg (May 12, 2:30 PM)
Average62 °F62%29.95 "Hg
* Reported May 12 11:00 AM — May 27 11:00 AM, Nîmes, Weather by CustomWeather, © 2016

Note: Actual official high and low records may vary slightly from our data, if they occured in-between our weather recording intervals... More about our weather records

Advertising

Nîmes Weather History for the Previous 24 Hours

Scroll right to see more
 ConditionsComfort  
Time TempWeatherWind HumidityBarometerVisibility
11:00 AM
Fri, May 27
75 °FSunny.3 mph44%29.95 "Hg10 mi
10:30 AM73 °FSunny.2 mph47%29.95 "Hg10 mi
10:00 AM70 °FSunny.2 mph53%29.95 "Hg10 mi
9:30 AM70 °FPassing clouds.5 mph50%29.95 "HgN/A
9:00 AM66 °FPassing clouds.3 mph60%29.98 "HgN/A
8:00 AM59 °FSunny.1 mph72%29.95 "Hg10 mi
7:30 AM57 °FSunny.3 mph82%29.95 "Hg10 mi
7:00 AM55 °FClear.2 mph82%29.95 "Hg10 mi
6:30 AM54 °FClear.2 mph88%29.95 "Hg10 mi
6:00 AM52 °FClear.3 mph88%29.95 "Hg10 mi
5:30 AM54 °FCool.2 mph88%29.95 "HgN/A
5:00 AM55 °FClear.1 mph82%29.95 "Hg10 mi
4:30 AM55 °FClear.3 mph82%29.95 "Hg10 mi
4:00 AM54 °FClear.2 mph88%29.95 "Hg10 mi
3:30 AM54 °FClear.3 mph88%29.95 "Hg10 mi
3:00 AM55 °FClear.1 mph88%29.95 "Hg10 mi
2:30 AM55 °FClear.3 mph88%29.95 "Hg10 mi
2:00 AM55 °FClear.2 mph82%29.95 "Hg10 mi
1:30 AM57 °FCool.3 mph82%29.95 "HgN/A
1:00 AM55 °FClear.3 mph88%29.95 "Hg10 mi
12:30 AM57 °FClear.3 mph88%29.95 "Hg10 mi
12:00 AM59 °FClear.No wind82%29.95 "Hg10 mi
11:30 PM
Thu, May 26
61 °FClear.3 mph83%29.95 "Hg10 mi
11:00 PM61 °FClear.3 mph83%29.95 "Hg10 mi
10:30 PM63 °FClear.3 mph77%29.95 "Hg10 mi
10:00 PM63 °FSunny.2 mph77%29.95 "Hg10 mi
9:30 PM64 °FSunny.1 mph73%29.95 "Hg10 mi
9:00 PM64 °FSunny.3 mph78%29.92 "Hg10 mi
8:30 PM66 °FSunny.3 mph68%29.92 "Hg10 mi
8:00 PM68 °FSunny.2 mph60%29.92 "Hg10 mi
7:30 PM68 °FSunny.3 mph56%29.92 "Hg10 mi
7:00 PM68 °FPassing clouds.3 mph56%29.92 "HgN/A
6:30 PM70 °FPassing clouds.5 mph50%29.92 "HgN/A
6:00 PM70 °FPassing clouds.6 mph50%29.95 "HgN/A
5:30 PM72 °FPassing clouds.7 mph47%29.95 "HgN/A
5:00 PM72 °FPassing clouds.8 mph47%29.95 "HgN/A
4:30 PM72 °FPassing clouds.8 mph44%29.95 "HgN/A
4:00 PM72 °FPassing clouds.9 mph50%29.95 "HgN/A
3:30 PM73 °FPassing clouds.8 mph50%29.95 "HgN/A
3:00 PM73 °FPassing clouds.7 mph41%29.95 "HgN/A
2:30 PM77 °FPassing clouds.7 mph36%29.95 "HgN/A
2:00 PM75 °FPassing clouds.7 mph39%29.95 "HgN/A
1:30 PM75 °FSunny.5 mph39%29.95 "Hg10 mi
1:00 PM73 °FSunny.3 mph38%29.98 "Hg10 mi
12:30 PM73 °FSunny.2 mph38%29.98 "Hg10 mi
12:00 PM72 °FSunny.3 mph44%29.98 "Hg10 mi
Weather by CustomWeather, © 2016

See weather overviewHow to use our weather pages